{"data":{"norad_id":59572,"epoch":"2026-09-21T06:21:28.822752Z","epoch_age_seconds":102194,"freshness":"FRESH","line1":"1 59572U 24076J   26264.26491693  .00000476  00000+0  26814-4 0  9998","line2":"2 59572  43.0033 337.5241 0001691 275.6464  84.4195 15.27575568136494","mean_motion":15.27575568,"eccentricity":0.0001691,"inclination_deg":43.0033,"raan_deg":337.5241,"arg_perigee_deg":275.6464,"mean_anomaly_deg":84.4195,"bstar":2.6814e-5,"rev_number":13649,"period_min":94.267022212547,"perigee_km":481.90213826117,"apogee_km":484.22259588711,"semimajor_km":6861.1993670741,"source":"CELESTRAK","updated_at":"2026-09-22T09:00:49.002105Z"}}